C2610 Weather Reports


time (UTC)temp
F
wind
direction
speed
knots
gust
knots
rain 1hr
in
rain 24hr
in
rain mn
in
humidity
%
barometer
mb
20260506144505 51 0 0.0 0.0 0.00 0.00 0.00 93 1036.5
20260506143003 51 0 0.0 0.0 0.00 0.00 0.00 93 1036.6
20260506141503 51 186 0.0 0.9 0.00 0.00 0.00 93 1036.6
20260506140003 51 0 0.0 0.0 0.00 0.00 0.00 93 1036.4
20260506134503 51 0 0.0 0.0 0.00 0.00 0.00 93 1036.4
20260506133004 51 0 0.0 0.0 0.00 0.00 0.00 92 1036.3
20260506131504 51 0 0.0 0.0 0.00 0.00 0.00 92 1036.2
20260506130005 51 0 0.0 0.0 0.00 0.00 0.00 92 1036.3
20260506124504 51 0 0.0 0.0 0.00 0.00 0.00 91 1036.1
20260506123005 51 186 0.0 0.9 0.00 0.00 0.00 91 1036.1
20260506121503 51 186 0.0 0.9 0.00 0.00 0.00 91 1036.0
20260506120004 51 0 0.0 0.0 0.00 0.00 0.00 91 1035.8
20260506114504 51 186 0.0 0.9 0.00 0.00 0.00 91 1036.0
20260506113003 50 0 0.0 0.0 0.00 0.00 0.00 91 1035.9
20260506111503 50 186 0.0 0.9 0.00 0.00 0.00 91 1035.7
20260506110003 50 0 0.0 0.0 0.00 0.00 0.00 91 1035.4
20260506104503 50 0 0.0 0.0 0.00 0.00 0.00 91 1035.2
20260506103003 50 186 0.0 0.9 0.00 0.00 0.00 91 1035.0
20260506101503 49 272 0.9 2.6 0.00 0.00 0.00 91 1034.9
20260506100004 49 0 0.0 0.0 0.00 0.00 0.00 91 1034.9
20260506094504 49 338 0.0 0.9 0.00 0.00 0.00 92 1034.8
20260506093004 49 339 0.0 0.9 0.00 0.00 0.00 92 1034.8
20260506091504 49 0 0.0 0.0 0.00 0.00 0.00 93 1034.8
20260506090005 48 0 0.0 0.0 0.00 0.00 0.00 93 1034.7
20260506084504 48 0 0.0 0.0 0.00 0.00 0.00 93 1034.6
20260506083004 48 341 0.9 0.9 0.00 0.00 0.00 92 1034.6
20260506081504 48 341 0.0 0.9 0.00 0.00 0.00 92 1034.3
20260506073004 49 341 0.0 0.9 0.00 0.00 0.00 90 1033.9
20260506071504 49 341 0.9 0.9 0.00 0.00 0.00 90 1033.8
20260506061505 50 11 0.0 2.6 0.00 0.00 0.00 89 1033.6
20260506044505 52 339 0.9 1.7 0.00 0.00 0.00 87 1033.1
20260506043005 52 348 0.0 1.7 0.00 0.00 0.00 86 1032.8
20260506041503 53 347 0.0 0.9 0.00 0.00 0.00 85 1032.6
20260506040004 54 347 0.0 0.9 0.00 0.00 0.00 84 1032.3
20260506033004 55 0 0.0 0.0 0.00 0.00 0.00 82 1032.1
20260506031503 56 0 0.0 0.0 0.00 0.00 0.00 81 1032.2
20260506024504 58 0 0.0 0.0 0.00 0.00 0.00 78 1032.2
20260506023004 58 58 0.0 0.9 0.00 0.00 0.00 76 1032.1
20260506020003 59 58 0.0 0.9 0.00 0.00 0.00 74 1032.1
20260506011505 62 63 0.9 1.7 0.00 0.00 0.00 68 1032.2
20260506010005 63 66 0.9 2.6 0.00 0.00 0.00 68 1032.3
20260506004504 63 89 0.9 2.6 0.00 0.00 0.00 68 1032.4
20260506001503 63 62 0.9 2.6 0.00 0.00 0.00 70 1032.5
20260506000004 63 45 0.9 2.6 0.00 0.00 0.00 71 1032.5
20260505234505 63 66 0.9 1.7 0.00 0.00 0.00 69 1032.7
20260505233003 63 35 1.7 3.5 0.00 0.00 0.00 70 1032.8
20260505231505 62 77 0.9 2.6 0.00 0.00 0.00 73 1032.9
20260505230004 61 75 0.9 1.7 0.00 0.00 0.00 74 1033.1
20260505224505 61 65 0.9 2.6 0.00 0.00 0.00 73 1033.2
20260505223005 61 55 0.9 2.6 0.00 0.00 0.00 73 1033.2
20260505221505 61 51 1.7 3.5 0.00 0.00 0.00 76 1033.2
20260505220004 61 63 0.9 2.6 0.00 0.00 0.00 75 1033.3
20260505214503 60 60 1.7 2.6 0.00 0.00 0.00 75 1033.6
20260505213003 62 63 0.9 2.6 0.00 0.00 0.00 73 1033.6
20260505211503 61 51 0.9 1.7 0.00 0.00 0.00 76 1033.6
20260505210003 60 34 0.9 2.6 0.00 0.00 0.00 79 1033.6
20260505204503 59 51 0.9 2.6 0.00 0.00 0.00 81 1033.7
20260505203004 58 73 0.9 2.6 0.00 0.00 0.00 81 1033.8
20260505201505 57 57 0.9 1.7 0.00 0.00 0.00 82 1033.8
20260505200004 57 57 0.9 2.6 0.00 0.00 0.00 82 1033.8
20260505194503 57 50 0.9 2.6 0.00 0.00 0.00 83 1033.9
20260505193005 57 56 0.9 1.7 0.00 0.00 0.00 83 1033.8
20260505191503 57 50 0.9 4.3 0.00 0.00 0.00 83 1033.7
20260505190004 57 150 0.0 2.6 0.00 0.00 0.00 81 1033.7
20260505183003 57 125 0.9 2.6 0.00 0.00 0.00 82 1033.7
20260505181503 57 146 0.9 3.5 0.00 0.00 0.00 81 1033.6
20260505180004 56 154 0.9 4.3 0.00 0.00 0.00 83 1033.6
20260505174505 56 146 0.9 2.6 0.00 0.00 0.00 84 1033.5
20260505173003 56 142 0.0 1.7 0.00 0.00 0.00 84 1033.4
20260505171504 56 162 1.7 4.3 0.00 0.00 0.00 84 1033.3
20260505170005 55 142 0.0 2.6 0.00 0.00 0.00 85 1033.3
20260505164504 55 152 0.0 2.6 0.00 0.00 0.00 85 1033.3
20260505163004 55 162 0.9 2.6 0.00 0.00 0.00 87 1033.3
20260505161504 55 136 0.0 1.7 0.00 0.00 0.00 87 1033.2
20260505153003 54 144 0.0 1.7 0.00 0.00 0.00 88 1033.0
20260505151503 54 189 0.0 1.7 0.00 0.00 0.00 89 1032.8